Regional Weather Roundup
Issued by NWS Cleveland, OH

Home | Current Version | Previous Version | Text Only | Print | Product List | Glossary Off
Versions: 1 2 3 4 5 6 7 8 9 10 11 12 13 14 15 16 17 18 19 20 21 22 23 24 25 26 27 28 29 30 31 32 33 34 35 36 37 38 39 40 41 42 43 44 45 46 47 48 49 50

000
ASUS41 KCLE 061102
RWRCLE
OHIO REGIONAL WEATHER ROUNDUP
NATIONAL WEATHER SERVICE CLEVELAND, OH
700 AM EDT MON JUL 06 2015

NOTE: "FAIR" INDICATES FEW OR NO CLOUDS BELOW 12,000 FEET WITH NO
SIGNIFICANT WEATHER AND/OR OBSTRUCTIONS TO VISIBILITY.

OHZ001>008-015>018-024>027-034-035-043-044-061200-
   NORTHWEST OHIO

CITY           SKY/WX    TMP DP  RH WIND       PRES   REMARKS
DEFIANCE       CLEAR     60  58  92 CALM      30.08S FOG
FINDLAY        CLEAR     60  58  92 CALM      30.08S FOG
TOLEDO EXPRESS CLEAR     56  55  97 CALM      30.06F FOG
TOLEDO EXEC    CLEAR     61  58  90 SE3       30.08F FOG
LIMA           CLEAR     59  58  96 CALM      30.09S FOG
$$

OHZ009>014-019>023-028>033-038-089-061200-
   NORTHEAST OHIO

CITY           SKY/WX    TMP DP  RH WIND       PRES   REMARKS
CLE-HOPKINS    MOCLDY    62  59  90 SW3       30.10R
CLE-LAKEFRONT  MOCLDY    68  60  75 CALM      30.07R
CUY CO. ARPT   PTCLDY    68  61  77 CALM      30.08
LORAIN-ELYRIA  PTCLDY    61  59  93 SE3       30.09R FOG
ASHTABULA      PTSUNNY   66  62  87 SE5       30.10R
AKRON-CANTON   CLOUDY    66  59  78 NE5       30.09R
WOOSTER        MOCLDY    63  61  93 CALM      30.10R FOG
MANSFIELD      CLEAR     61  59  93 CALM      30.10R FOG
YOUNGSTOWN     LGT RAIN  66  63  90 SE7       30.09R
$$

OHZ042-051>053-060>062-070>072-077>081-061200-
  SOUTHWEST OHIO

CITY           SKY/WX    TMP DP  RH WIND       PRES   REMARKS
CINC-COVINGTON PTCLDY    62  60  93 W3        30.10R
CINC-LUNKEN    PTCLDY    62  62 100 CALM      30.10S FOG
HAMILTON       CLEAR     59  59 100 CALM      30.11R FOG
DAYTON         PTCLDY    63  60  90 W3        30.11R FOG
WRIGHT-PAT AFB NOT AVBL
DAYTON GENERAL CLEAR     64  61  90 CALM      30.09R
WILMINGTON     CLEAR     65  60  84 NW6       30.09R HAZE
$$

OHZ036-037-039>041-045>050-054>059-063>069-073>076-082>088-061200-
  CENTRAL AND SOUTHEAST OHIO

CITY           SKY/WX    TMP DP  RH WIND       PRES   REMARKS
COLUMBUS       PTCLDY    64  62  93 NE3       30.06R
OSU AIRPORT    CLEAR     64  60  87 N3        30.08R
BOLTON FIELD   NOT AVBL
RICKENBACK AFB NOT AVBL
NEWARK         CLOUDY    65  63  93 E3        30.07R
MARION         CLOUDY    63  59  87 CALM      30.09F FOG
LANCASTER      CLOUDY    66  63  90 N3        30.08R FOG
ZANESVILLE     NOT AVBL
NEW PHILLY     CLOUDY    65  63  93 CALM      30.09R
$$



USA.gov is the U.S. government's official web portal to all federal, state and local government web resources and services.